Wind_Speed
11 10 10 9 9 9 8 8 7 7 6 5 5 4 4 4 3 2 2 2 2 3 3 2 2 2 1 2 2 2 2 2 3 3 4 4 5 5 6 7 7 7 8
13 12 11 11 10 10 9 9 8 8 7 6 5 5 4 4 3 2 2 2 1 1 1 1 1 1 1 1 1 2 2 3 3 4 4 5 5 6 7 7 8 8 8
15 14 13 12 12 11 11 10 9 9 8 7 6 5 5 4 3 2 2 1 1 1 1 0 0 0 1 1 1 2 2 3 4 5 5 5 6 6 7 8 8 9 9
17 16 15 14 14 13 13 12 11 10 9 8 7 6 6 5 4 3 2 2 2 1 1 1 1 1 1 2 2 3 3 4 5 5 6 6 7 7 8 9 9 10 11
18 18 17 16 16 15 14 14 13 12 11 9 9 8 7 6 5 4 3 3 3 2 2 2 2 2 3 3 4 4 5 5 5 6 7 7 8 8 9 10 11 11 12
20 19 19 18 17 17 16 15 14 13 12 11 10 9 8 7 7 6 5 5 4 4 4 4 4 4 5 5 6 6 6 6 7 7 8 8 9 10 11 11 12 13 13
22 21 21 20 19 18 17 16 16 15 14 13 12 11 10 9 9 8 7 7 6 6 6 5 5 6 7 7 7 7 7 8 8 8 9 10 10 11 12 12 13 14 14
23 22 22 22 20 20 19 18 17 16 15 14 13 13 12 11 10 10 9 8 8 8 7 7 7 8 8 8 8 8 9 9 10 10 11 11 12 12 13 14 14 15 15
24 23 23 23 22 21 21 20 19 18 17 16 15 15 14 13 12 11 10 10 9 9 9 9 9 9 9 9 9 10 10 11 11 11 12 12 13 14 14 15 16 16 16
26 25 25 24 24 23 22 21 20 19 19 18 17 16 16 15 14 13 12 12 11 11 11 10 10 10 10 10 11 12 12 12 12 12 13 13 14 15 16 16 17 17 18
28 28 27 26 26 24 23 23 22 21 21 20 19 18 17 16 15 15 14 13 13 13 12 12 12 12 12 12 12 12 13 13 13 14 14 14 15 16 17 17 18 18 19
30 29 29 28 28 27 25 24 24 23 22 22 21 20 19 18 17 17 16 15 14 14 14 14 13 13 13 13 13 13 14 14 14 15 16 16 17 18 18 19 19 19 20
32 31 30 30 30 29 27 27 26 25 24 23 22 22 21 21 20 19 18 17 16 16 16 15 15 15 14 14 14 15 15 15 16 17 17 18 19 19 20 20 21 21 21
34 33 31 31 31 30 29 29 28 27 26 24 23 23 23 22 22 21 20 20 19 18 17 17 17 16 16 16 16 17 17 17 17 18 19 20 20 21 22 22 22 23 23
36 36 34 33 32 31 31 30 29 29 28 26 25 25 24 24 23 22 22 22 21 21 20 19 18 18 18 18 18 19 19 19 19 20 20 21 22 23 23 24 24 24 25
38 38 37 36 34 34 33 32 31 30 30 28 27 26 26 26 26 25 24 24 23 23 22 22 21 21 20 20 20 20 21 21 21 22 22 23 24 24 25 25 26 26 27
39 39 38 37 37 36 35 34 33 33 32 31 30 29 28 28 28 27 27 27 26 25 25 25 25 24 23 22 22 22 23 23 24 24 25 25 25 26 26 27 27 28 28
41 41 40 39 38 37 36 36 35 35 34 34 33 31 30 30 29 29 29 29 28 28 27 27 26 26 26 25 25 25 25 25 26 26 26 27 27 27 28 28 29 29 30
43 43 41 40 40 38 38 37 37 37 36 36 35 35 33 32 32 32 31 31 30 30 29 29 28 28 27 28 28 27 27 27 27 28 28 29 29 29 29 30 31 31 31
44 44 43 42 41 40 40 39 39 38 38 37 37 37 36 35 34 34 34 33 33 32 31 31 30 30 29 29 29 29 29 29 29 29 29 30 30 30 31 31 32 32 33
45 45 45 43 42 42 41 40 40 40 39 39 38 38 37 36 35 35 35 34 34 34 33 33 32 32 32 32 31 31 31 31 31 31 31 31 31 31 32 33 34 34 34
45 46 45 45 44 43 42 41 41 41 41 40 40 39 38 38 37 36 36 36 36 36 35 34 34 34 34 34 33 33 33 33 33 33 33 34 34 34 35 35 35 35 36
47 47 46 46 46 44 43 43 42 42 42 42 42 40 40 39 39 38 37 37 37 37 37 37 36 35 35 35 35 35 35 34 34 34 34 35 36 36 37 38 37 36 37
48 48 48 47 47 46 45 44 44 43 43 42 42 41 41 41 40 40 39 39 39 39 39 38 38 37 36 36 36 36 36 35 35 34 35 36 37 38 39 39 40 39 39
48 49 49 48 48 47 46 45 45 45 44 43 43 43 42 42 41 41 40 40 40 40 40 40 39 38 38 37 36 36 36 36 37 37 37 37 38 39 40 40 41 41 41
47 48 49 49 49 48 47 47 46 46 45 45 45 45 44 43 42 41 42 42 42 42 41 41 40 39 38 38 38 38 38 38 38 38 38 38 39 39 40 41 41 41 42
Wind_Direction
219 216 214 214 213 209 206 205 201 198 193 185 180 175 172 164 155 146 141 127 110 99 97 96 90 81 65 54 48 37 21 13 9 5 360 355 353 351 351 350 347 344 340
223 222 220 219 216 215 213 210 206 205 202 197 192 186 184 178 170 164 160 151 130 105 101 102 90 68 54 42 27 14 1 353 348 346 342 340 339 341 342 342 341 339 336
227 226 223 222 219 217 216 214 212 211 210 208 204 199 196 195 193 188 187 190 192 180 169 152 129 56 356 333 332 331 330 330 333 334 335 333 333 335 335 335 335 333 331
228 228 225 225 223 220 218 217 216 216 216 216 215 211 210 210 211 212 212 216 220 216 220 230 242 261 283 288 295 302 308 313 320 325 328 329 330 331 331 331 331 330 328
229 228 227 226 225 223 222 221 220 220 221 222 222 221 222 223 225 226 227 229 229 225 229 250 266 270 277 281 287 293 297 302 307 312 316 320 323 324 324 325 325 325 324
230 229 227 225 225 225 224 223 223 224 225 226 226 229 230 230 232 236 235 236 238 239 243 256 267 273 277 280 283 286 290 295 299 302 305 309 312 314 317 319 321 321 320
230 229 227 226 226 226 226 225 224 226 228 229 229 232 233 234 237 240 241 241 242 243 248 257 269 276 280 282 283 285 289 293 295 297 299 302 306 310 313 315 317 317 317
229 228 227 226 226 226 227 228 227 228 229 231 232 233 234 237 240 242 245 244 241 244 250 258 269 276 278 281 281 283 285 289 291 293 295 298 301 305 307 310 312 314 314
229 228 227 227 227 228 229 230 231 231 232 234 235 236 237 239 242 245 246 246 247 249 253 261 269 275 279 278 279 280 282 286 288 291 293 296 299 302 304 307 309 310 310
230 229 229 229 228 229 230 231 232 233 234 235 236 238 239 240 241 244 246 247 251 254 257 262 269 274 278 279 279 280 282 284 287 289 292 295 299 301 303 306 307 308 308
231 231 230 230 229 230 231 232 234 234 235 236 237 238 240 241 243 245 246 248 251 257 261 264 267 271 276 279 280 281 283 285 287 289 292 295 297 299 301 304 305 306 306
232 232 232 231 231 231 232 234 235 236 236 238 239 240 242 243 245 246 247 249 253 257 262 265 268 271 275 278 280 282 284 286 287 289 291 293 296 298 300 302 303 304 304
231 231 231 231 232 233 234 234 236 237 237 239 241 241 243 244 246 248 249 251 255 259 261 265 269 272 275 277 279 281 283 285 287 289 291 293 295 297 298 299 300 301 301
230 230 231 231 232 232 233 235 237 238 238 239 242 243 243 245 247 248 250 252 255 258 262 264 268 271 275 277 278 280 282 284 287 288 290 292 294 296 297 297 298 299 300
231 231 231 232 233 234 235 236 237 238 239 240 243 245 245 246 248 249 250 253 256 258 261 265 268 270 274 278 280 280 280 282 285 287 289 292 294 295 296 296 297 298 299
232 231 232 233 234 235 236 238 239 240 241 242 244 246 247 248 249 250 252 254 257 260 262 264 267 270 272 275 278 280 280 281 283 286 289 291 292 293 294 295 296 297 298
232 232 232 233 235 236 236 238 240 241 242 243 245 247 249 249 249 250 252 255 258 261 263 265 268 270 271 274 276 279 280 282 284 285 287 289 290 291 292 294 295 296 297
233 232 232 232 234 236 237 238 240 242 244 244 246 248 249 250 250 250 252 254 257 260 262 264 267 270 271 273 275 278 281 282 283 285 287 288 289 290 291 292 293 294 295
233 232 232 232 234 236 237 238 240 241 244 245 247 249 250 251 251 252 253 255 257 260 262 264 266 268 270 272 274 277 279 281 283 284 287 288 288 289 290 291 292 293 293
233 233 233 233 234 236 238 240 241 242 244 246 247 249 250 252 252 252 253 255 257 260 262 264 266 267 269 272 274 276 278 280 282 284 285 286 287 288 289 290 292 293 293
232 232 233 233 234 236 238 241 242 243 244 246 248 250 251 252 253 253 254 256 258 260 262 263 266 267 268 271 273 275 277 279 281 283 284 285 286 288 289 290 291 292 293
232 232 233 234 235 237 239 241 243 244 244 246 248 250 251 252 253 254 257 257 259 260 261 264 266 267 268 270 272 275 276 278 280 282 283 285 286 287 288 290 291 292 292
233 233 234 235 236 237 240 242 243 245 246 246 248 250 251 252 253 255 257 258 259 261 263 264 266 267 269 271 272 274 276 278 279 281 283 284 285 287 289 290 291 292 292
234 234 235 236 237 238 240 242 244 246 248 248 248 249 251 253 254 255 257 258 260 261 263 264 266 267 269 270 271 273 276 278 279 279 281 284 286 288 289 291 291 291 292
236 235 235 236 237 238 240 243 245 246 247 248 249 250 252 253 253 254 256 258 260 261 263 264 265 266 268 270 271 273 275 277 279 280 281 283 285 287 289 290 291 291 292
236 236 236 237 238 239 240 242 244 246 247 248 249 250 252 254 254 255 256 257 259 260 261 262 263 265 267 269 271 273 274 276 279 281 282 284 285 287 289 290 291 292 293
Height
5878 5878 5879 5880 5880 5881 5881 5882 5882 5883 5883 5883 5883 5883 5883 5883 5883 5883 5883 5883 5883 5883 5883 5882 5882 5882 5881 5881 5881 5880 5880 5879 5878 5878 5877 5876 5875 5874 5873 5872 5871 5870 5869
5876 5877 5878 5878 5879 5880 5880 5881 5882 5882 5883 5883 5883 5883 5883 5883 5883 5883 5883 5883 5883 5883 5882 5882 5882 5882 5881 5881 5880 5880 5879 5879 5878 5877 5876 5876 5875 5874 5873 5872 5871 5870 5868
5874 5875 5876 5877 5878 5878 5879 5880 5881 5881 5882 5882 5882 5882 5882 5882 5882 5882 5882 5882 5882 5882 5882 5882 5881 5881 5881 5881 5880 5880 5879 5878 5878 5877 5876 5875 5874 5873 5872 5871 5870 5869 5867
5871 5872 5874 5875 5876 5877 5878 5878 5879 5880 5881 5881 5881 5882 5882 5882 5882 5882 5882 5882 5882 5882 5881 5881 5881 5881 5880 5880 5879 5879 5878 5878 5877 5876 5875 5874 5873 5872 5871 5870 5869 5868 5866
5868 5870 5871 5872 5874 5875 5875 5877 5877 5878 5879 5880 5880 5881 5881 5881 5881 5881 5881 5881 5881 5881 5881 5880 5880 5880 5879 5879 5879 5878 5877 5877 5876 5875 5874 5873 5872 5871 5870 5869 5868 5866 5865
5865 5866 5868 5870 5871 5872 5873 5874 5875 5876 5877 5878 5879 5879 5879 5879 5879 5880 5880 5880 5880 5880 5880 5880 5879 5879 5878 5878 5877 5877 5876 5876 5875 5874 5873 5872 5871 5870 5869 5868 5866 5865 5863
5861 5863 5865 5867 5868 5869 5870 5871 5873 5874 5875 5876 5877 5877 5878 5878 5878 5878 5878 5878 5878 5878 5878 5878 5878 5878 5877 5877 5876 5875 5875 5874 5873 5872 5871 5870 5869 5868 5867 5866 5864 5863 5861
5857 5859 5861 5863 5865 5866 5867 5869 5870 5871 5872 5873 5874 5875 5875 5876 5876 5876 5876 5876 5876 5877 5877 5877 5876 5876 5876 5875 5874 5874 5873 5872 5871 5870 5869 5868 5867 5866 5865 5863 5862 5860 5859
5853 5855 5857 5859 5861 5862 5864 5865 5867 5868 5869 5871 5871 5872 5873 5873 5874 5874 5874 5874 5874 5874 5874 5874 5874 5874 5873 5873 5872 5872 5871 5870 5869 5868 5867 5866 5865 5864 5862 5861 5859 5858 5856
5848 5851 5853 5855 5857 5859 5860 5862 5863 5865 5866 5867 5868 5869 5870 5871 5871 5871 5872 5872 5872 5872 5872 5872 5872 5871 5871 5870 5870 5869 5869 5868 5867 5866 5865 5864 5862 5861 5860 5858 5856 5855 5853
5843 5846 5848 5850 5852 5854 5856 5858 5859 5861 5862 5863 5864 5866 5867 5867 5868 5869 5869 5869 5869 5869 5869 5869 5869 5868 5868 5867 5867 5866 5866 5865 5864 5863 5862 5861 5859 5858 5857 5855 5853 5852 5850
5837 5840 5843 5845 5847 5850 5852 5854 5855 5856 5858 5859 5861 5862 5863 5864 5865 5865 5866 5866 5866 5866 5866 5866 5866 5865 5865 5864 5864 5863 5862 5861 5861 5860 5859 5858 5856 5855 5853 5852 5850 5848 5846
5831 5834 5836 5839 5842 5844 5847 5849 5850 5852 5853 5855 5856 5857 5858 5860 5861 5861 5862 5862 5863 5863 5863 5863 5862 5862 5862 5861 5860 5860 5859 5858 5857 5856 5855 5854 5853 5851 5849 5848 5846 5844 5842
5823 5827 5830 5833 5836 5839 5841 5843 5845 5847 5849 5850 5852 5853 5854 5855 5856 5857 5858 5858 5859 5859 5859 5859 5858 5858 5858 5857 5857 5856 5855 5854 5853 5852 5851 5850 5849 5847 5845 5844 5842 5840 5838
5816 5820 5823 5826 5830 5833 5835 5837 5839 5842 5843 5845 5847 5848 5849 5850 5851 5852 5853 5853 5854 5854 5854 5854 5854 5854 5854 5853 5853 5852 5851 5850 5849 5848 5847 5846 5844 5843 5841 5839 5837 5836 5833
5808 5812 5816 5820 5823 5826 5829 5831 5834 5836 5838 5840 5841 5842 5844 5845 5846 5847 5848 5849 5849 5849 5850 5850 5849 5849 5849 5849 5848 5847 5847 5846 5845 5843 5842 5841 5839 5838 5836 5834 5832 5830 5828
5800 5804 5808 5812 5816 5819 5822 5825 5827 5829 5832 5834 5835 5836 5838 5839 5840 5841 5842 5843 5844 5844 5844 5844 5844 5844 5844 5844 5843 5843 5842 5841 5840 5838 5837 5836 5834 5832 5830 5829 5827 5825 5823
5791 5795 5800 5804 5808 5812 5815 5817 5820 5822 5825 5827 5828 5830 5831 5833 5834 5835 5836 5837 5837 5838 5838 5838 5839 5839 5838 5838 5838 5837 5836 5835 5834 5833 5831 5830 5828 5826 5825 5823 5821 5819 5817
5782 5787 5791 5796 5800 5804 5807 5810 5812 5815 5817 5819 5821 5823 5825 5826 5827 5828 5829 5830 5831 5831 5832 5832 5832 5832 5832 5832 5832 5831 5830 5829 5828 5826 5825 5823 5822 5820 5818 5816 5814 5812 5810
5772 5778 5783 5787 5792 5795 5799 5802 5804 5807 5809 5811 5813 5815 5817 5819 5820 5821 5822 5823 5824 5825 5825 5825 5826 5826 5826 5826 5825 5824 5824 5822 5821 5820 5818 5817 5815 5813 5811 5809 5807 5805 5803
5763 5768 5774 5778 5783 5787 5790 5794 5797 5799 5802 5804 5806 5807 5809 5811 5812 5813 5814 5816 5817 5817 5818 5818 5818 5819 5819 5818 5818 5818 5817 5816 5814 5813 5811 5810 5808 5806 5805 5802 5800 5798 5796
5754 5759 5764 5769 5774 5778 5782 5785 5788 5790 5793 5795 5797 5799 5801 5802 5804 5805 5806 5808 5809 5809 5810 5810 5811 5811 5811 5811 5811 5810 5810 5809 5807 5806 5804 5803 5801 5799 5797 5795 5793 5790 5788
5744 5749 5755 5760 5765 5769 5773 5776 5779 5781 5783 5786 5788 5790 5792 5794 5796 5797 5798 5799 5800 5801 5802 5802 5803 5803 5803 5803 5802 5802 5802 5801 5800 5799 5797 5795 5793 5791 5789 5787 5785 5782 5780
5734 5739 5745 5750 5755 5759 5763 5766 5769 5772 5775 5778 5780 5782 5784 5785 5787 5788 5790 5791 5792 5793 5794 5794 5795 5795 5795 5795 5794 5794 5793 5792 5792 5791 5790 5787 5785 5783 5781 5778 5776 5774 5771
5723 5729 5734 5740 5745 5749 5753 5757 5760 5763 5765 5768 5770 5772 5774 5776 5778 5779 5781 5782 5783 5784 5785 5786 5786 5787 5787 5787 5786 5786 5785 5784 5783 5782 5781 5779 5777 5774 5772 5769 5767 5764 5762
5713 5718 5723 5729 5734 5739 5743 5747 5750 5753 5755 5757 5760 5762 5765 5767 5768 5770 5771 5773 5774 5775 5776 5777 5777 5778 5778 5778 5778 5777 5776 5775 5774 5772 5772 5770 5768 5766 5763 5760 5757 5754 5752